Terminal Aerodrome Forecast
Issued by NWS Lake Charles, LA

Home | Current Version | Previous Version | Text Only | Print | Product List | Glossary On
Versions: 1 2 3 4 5 6 7 8 9 10 11 12 13 14 15 16 17 18 19 20 21 22 23 24
000
FTUS44 KLCH 200533
TAFLCH
TAF
KLCH 200533Z 2006/2106 13012KT P6SM OVC012
     FM200800 13010KT P6SM OVC007
     FM201000 13010KT 5SM BR OVC004
     FM201700 14014KT P6SM VCSH OVC015
      TEMPO 2021/2024 4SM -RA BR OVC007
     FM210000 VRB05KT 4SM SHRA BR OVC015=

USA.gov is the U.S. government's official web portal to all federal, state and local government web resources and services.